Theta_e
337 337 338 338 338 339 338 338 335 333 332 332 332 333 337 336 334 333 334 335 337 338 338 338 336 334 335 335 336 333 332 332 333 333 333 334 337 336 335 332 332 331 330
335 337 339 338 336 338 339 338 335 332 331 329 332 333 334 337 337 334 333 334 336 337 336 335 337 335 337 335 333 333 331 331 330 332 333 335 335 334 334 331 329 329 329
336 337 338 338 336 334 337 336 334 333 332 333 333 336 335 335 335 335 334 331 333 334 333 332 337 336 333 333 335 333 330 331 332 332 333 333 334 334 333 329 329 328 328
338 338 337 337 337 335 336 337 334 329 332 334 333 333 334 335 335 334 333 331 329 332 334 336 335 335 331 332 332 332 330 330 332 331 333 333 334 334 332 329 328 328 326
339 339 337 333 335 335 334 337 337 332 331 334 334 333 333 334 335 334 332 330 332 332 331 332 333 330 329 330 332 332 329 329 332 332 332 333 333 333 331 330 328 327 324
339 340 338 336 333 333 334 334 338 335 333 332 334 334 333 333 335 333 333 333 333 333 331 331 331 328 327 328 329 330 328 329 332 332 332 332 332 332 330 328 325 323 323
340 340 339 338 337 336 333 334 332 335 334 333 331 333 332 332 334 334 334 333 332 333 332 333 329 329 326 326 327 329 328 330 332 332 332 331 331 331 328 326 324 323 323
339 339 340 339 338 338 337 336 334 332 332 332 330 331 334 331 332 333 333 332 332 332 332 332 328 327 326 325 326 328 327 330 330 331 331 331 329 329 328 325 324 323 322
333 334 334 335 336 336 336 336 335 336 332 330 330 329 333 332 332 332 334 332 331 330 329 329 329 327 322 323 326 327 326 331 329 330 330 329 327 328 327 325 324 323 321
307 309 310 314 325 332 334 335 335 335 334 330 330 329 331 333 331 331 333 332 331 329 328 327 328 328 321 324 328 327 326 330 329 330 328 327 327 328 326 324 323 322 321
305 305 305 305 306 307 312 324 328 333 335 332 331 330 330 333 333 330 330 331 330 329 327 327 327 327 322 326 328 328 329 329 329 328 328 325 326 327 326 323 322 321 320
305 305 305 305 306 306 306 307 311 319 329 333 332 332 331 331 333 332 329 328 328 326 325 327 326 327 323 325 328 328 329 329 328 328 327 325 327 327 325 324 322 320 319
304 305 305 305 305 305 305 305 306 306 307 316 325 329 332 330 330 332 331 329 327 326 325 325 326 326 323 323 327 328 329 328 327 327 326 325 327 327 325 324 322 320 319
305 306 305 305 306 306 306 305 305 305 305 305 306 308 320 327 331 330 331 330 328 327 326 325 325 325 324 323 326 327 327 326 325 325 324 325 326 326 324 323 322 320 318
305 306 306 306 306 306 305 305 305 305 305 304 304 305 306 309 322 329 330 330 329 327 326 326 325 325 324 325 326 326 327 326 324 325 324 324 325 325 325 323 322 320 318
305 306 306 306 306 305 305 305 305 305 305 305 305 304 304 306 306 310 322 329 329 328 326 325 325 325 324 326 325 323 324 325 325 324 324 323 324 324 324 324 322 320 319
304 304 305 305 304 304 304 303 304 304 304 304 304 304 304 304 304 307 307 311 327 327 326 326 324 324 324 325 325 324 323 325 325 324 324 324 324 324 323 323 322 320 319
304 304 304 303 303 302 302 301 301 301 302 302 303 304 304 304 304 303 305 305 309 325 325 325 324 324 324 323 325 325 325 324 324 324 324 323 324 324 323 322 321 321 320
300 300 300 300 300 299 299 299 300 300 300 301 301 301 301 302 303 304 305 305 305 310 325 325 324 323 323 322 323 324 325 324 323 323 323 323 324 323 323 322 321 320 319
299 299 299 298 298 297 297 296 296 297 297 298 299 299 299 300 300 302 307 304 304 305 306 324 324 324 323 322 321 322 323 324 323 323 323 323 323 323 323 321 321 319 319
299 298 298 297 296 295 295 294 294 294 294 295 295 296 297 298 299 300 302 302 302 303 304 306 323 324 323 322 315 309 313 318 320 321 321 321 322 323 323 321 321 319 319
298 298 297 295 294 293 292 291 292 292 292 292 292 293 294 295 296 297 298 301 304 305 304 304 305 323 323 317 317 311 306 304 304 315 318 317 320 322 321 321 321 319 318
297 297 296 293 292 291 289 289 289 289 289 289 290 291 292 294 295 296 297 298 301 304 304 303 304 306 321 312 320 316 309 318 301 300 306 313 312 318 318 320 320 319 318
296 296 294 291 289 288 288 287 287 287 288 288 288 289 290 291 292 293 296 299 301 302 304 304 304 306 310 314 317 318 317 314 315 303 297 299 310 307 313 314 317 318 317
295 293 291 288 287 287 287 286 287 287 287 287 287 288 288 289 291 293 295 298 301 304 305 309 308 307 309 312 315 318 314 308 314 304 299 294 297 305 309 308 312 315 318
293 290 288 287 286 286 286 286 285 286 286 286 287 287 288 288 289 290 292 293 295 298 299 301 304 304 305 308 315 318 316 313 311 309 303 302 302 296 302 307 309 313 313
Wind_Speed
6 12 16 16 15 15 16 15 16 16 16 15 16 17 17 17 19 19 18 18 19 18 17 16 17 16 15 15 16 16 17 18 18 17 17 16 18 23 25 26 24 22 21
8 12 17 17 16 14 14 15 16 16 15 15 14 14 15 15 16 17 18 17 18 17 17 17 19 18 17 18 17 19 19 20 18 19 18 19 22 23 24 22 22 21 20
6 13 17 18 17 17 16 16 17 17 16 14 13 13 13 14 15 16 16 17 16 16 18 18 20 20 19 19 20 21 20 20 20 20 19 22 23 23 22 21 21 20 20
4 14 16 18 17 17 17 18 18 17 17 15 15 14 14 13 15 15 16 17 18 17 18 19 19 19 22 20 20 21 20 21 20 21 22 24 23 22 22 21 20 21 19
4 12 11 17 17 16 17 18 20 18 18 16 16 16 17 17 16 17 18 19 21 21 18 17 16 18 19 20 20 20 21 22 21 25 25 25 23 22 21 21 21 20 19
3 9 10 11 14 17 17 19 20 20 19 17 17 17 17 19 21 21 22 22 21 20 21 18 18 19 19 20 22 22 22 23 24 28 28 26 24 23 21 21 19 17 19
4 6 12 12 13 14 17 19 19 20 20 19 17 19 20 20 22 25 22 24 22 22 21 21 18 17 19 19 21 23 24 25 29 30 30 27 25 23 21 21 19 19 19
3 5 10 15 17 17 18 18 20 21 21 21 20 21 22 22 24 23 24 25 22 21 20 21 19 19 19 20 23 23 26 28 29 30 28 28 25 23 22 20 20 19 19
8 5 4 5 12 17 17 18 21 22 23 25 24 24 24 24 24 25 25 26 25 22 20 18 19 19 18 24 25 26 27 30 31 31 30 28 24 24 23 21 21 20 20
9 9 10 9 8 9 12 17 18 21 25 25 26 27 26 27 25 26 27 28 26 24 22 20 21 19 20 28 24 27 28 30 30 29 30 27 26 24 23 23 21 21 20
7 11 10 10 10 10 10 10 12 15 22 26 28 30 28 28 30 28 27 28 27 26 24 24 24 24 22 25 22 27 32 34 34 33 31 28 27 25 25 25 22 21 20
9 11 12 11 11 11 11 11 11 11 13 20 30 32 32 30 32 30 30 29 28 28 26 26 25 26 26 28 24 27 34 35 35 34 31 31 28 26 26 27 26 22 21
7 9 11 11 11 12 12 13 13 12 13 12 15 16 26 31 34 33 33 32 31 30 28 28 28 28 30 33 29 30 34 34 35 33 33 33 31 28 26 25 25 24 22
5 7 6 7 10 12 13 13 15 16 15 16 17 19 19 15 32 34 35 35 35 33 34 32 33 31 33 34 33 32 35 37 34 34 37 35 31 31 29 27 25 24 24
7 6 4 6 9 11 13 15 16 17 18 18 15 17 17 22 16 22 32 35 38 36 36 37 36 34 35 35 28 31 34 38 35 39 39 38 35 32 31 27 28 26 24
8 7 7 9 11 13 15 18 20 21 21 20 19 16 14 16 20 26 19 28 34 39 39 41 40 38 39 36 35 32 30 36 38 38 39 38 37 35 31 30 28 28 26
5 8 9 12 13 15 19 23 24 26 29 28 25 22 20 15 16 15 23 27 32 35 39 37 42 41 40 36 34 37 33 37 41 40 38 41 40 37 37 34 32 30 30
8 11 12 15 19 24 28 30 31 31 31 32 32 30 27 26 22 21 23 24 27 37 36 34 40 39 39 36 33 35 37 38 40 40 40 41 45 43 40 38 36 33 31
11 13 18 23 27 29 31 31 32 32 30 30 33 34 34 31 30 25 24 28 25 27 37 39 35 39 35 32 33 32 33 33 35 40 39 43 44 44 44 40 38 37 35
17 20 24 28 30 31 31 33 33 33 35 33 31 31 33 33 30 28 29 26 26 29 36 37 39 43 36 34 31 35 37 37 37 38 35 43 45 44 45 44 42 41 39
24 28 30 32 32 28 25 25 25 25 27 28 27 28 31 32 31 29 31 31 31 30 33 39 32 40 36 31 30 21 25 31 39 39 37 38 42 44 48 45 45 44 42
28 28 27 26 27 26 26 26 25 27 27 29 30 30 30 32 35 35 34 32 30 33 32 35 38 26 35 42 23 16 4 6 20 34 37 35 40 42 43 49 48 43 45
28 29 30 31 29 28 29 26 25 27 27 24 23 24 23 24 28 32 35 34 32 33 33 33 29 38 27 36 42 14 4 7 4 12 28 34 33 40 41 45 46 49 50
27 24 28 31 29 27 27 25 24 24 26 26 27 28 28 28 30 32 32 33 32 32 32 32 37 35 25 31 37 43 26 14 5 2 10 22 33 31 36 34 42 46 47
21 22 25 29 28 27 26 24 25 26 27 28 28 29 29 29 29 30 31 30 31 29 31 30 26 27 33 23 41 36 31 19 21 3 4 6 21 31 32 33 38 42 48
18 24 25 26 26 26 26 27 26 28 29 29 28 29 28 28 28 29 32 35 34 32 33 29 29 28 35 36 29 42 41 22 13 8 3 6 12 16 33 36 36 40 42
Wind_Direction
228 187 184 188 199 185 177 173 170 174 173 170 165 163 164 167 172 172 172 171 171 166 158 156 156 156 157 157 155 149 142 141 140 139 145 143 133 132 121 120 115 114 110
279 192 188 189 194 202 191 192 186 184 181 179 177 176 177 175 175 179 181 181 178 174 171 166 164 163 160 165 162 157 152 149 149 149 153 143 138 130 121 124 117 117 111
277 204 192 192 196 200 205 204 204 197 191 189 188 183 181 181 183 183 186 190 185 180 176 174 169 166 167 162 161 158 159 161 158 157 150 147 140 129 124 125 123 117 114
271 190 192 195 201 203 208 208 210 206 199 194 194 193 191 195 187 189 186 185 177 175 173 170 169 166 170 172 167 164 163 162 162 163 153 151 144 134 127 129 125 122 117
258 196 195 200 204 213 215 216 214 211 209 200 202 199 197 197 199 191 191 185 180 175 180 182 180 183 184 177 172 170 169 166 165 160 159 153 144 133 131 131 129 126 122
256 214 208 209 218 217 218 228 224 218 217 217 207 206 207 200 202 198 193 196 189 181 174 178 183 187 193 189 183 177 175 173 169 165 161 152 143 139 136 138 138 130 126
282 248 228 235 235 229 230 233 232 230 223 224 224 215 210 210 210 203 200 193 193 192 184 177 188 190 185 194 191 178 181 175 168 166 159 155 145 143 143 141 139 137 132
323 297 254 248 244 250 248 243 238 234 234 231 233 226 219 214 210 210 206 196 192 192 185 183 194 194 198 194 193 184 185 176 175 169 159 152 149 146 147 146 144 142 137
52 45 14 318 266 268 263 261 254 246 240 239 236 230 229 219 215 207 206 195 190 198 197 197 196 200 204 198 191 191 186 178 177 172 164 159 155 151 151 148 147 145 142
41 35 24 11 337 302 290 269 272 255 249 240 238 234 229 222 221 213 206 204 202 203 209 207 203 209 206 194 199 193 188 182 182 178 170 167 158 157 157 153 154 152 147
12 13 8 4 0 360 352 306 308 288 259 248 243 238 234 227 221 220 217 214 213 213 215 214 216 209 207 202 199 193 187 188 187 183 178 169 162 164 161 158 158 157 155
350 358 356 352 350 345 342 340 354 339 334 287 239 242 232 230 226 219 219 221 224 222 217 217 218 212 206 205 202 197 192 190 190 187 182 173 168 168 170 163 160 162 159
322 346 347 350 352 347 345 341 339 350 345 336 352 311 250 234 232 225 221 221 221 221 218 218 216 216 208 206 206 199 197 192 195 191 184 176 173 169 172 167 163 164 163
293 327 343 358 357 355 355 355 353 348 347 344 343 319 330 299 239 233 229 225 220 218 217 216 215 216 211 210 207 203 202 195 192 190 184 181 179 175 172 175 169 167 167
270 298 305 336 342 340 340 340 339 338 338 338 345 345 330 306 331 249 233 231 226 221 221 219 217 217 214 213 201 202 203 205 197 193 187 183 184 182 179 177 176 171 171
272 296 315 330 331 329 329 329 327 325 322 320 321 325 332 327 308 302 296 237 232 224 224 223 218 219 217 216 207 206 202 205 208 195 192 189 189 188 184 181 179 177 174
309 328 328 336 334 332 328 322 316 312 311 308 306 304 305 305 313 311 294 297 231 232 232 220 216 222 219 217 205 207 205 210 209 207 199 192 194 194 188 185 183 185 180
10 352 335 328 318 313 311 308 304 300 296 292 292 292 290 290 282 278 283 297 292 232 234 220 208 210 212 208 202 200 204 209 215 214 212 200 196 195 196 188 187 188 185
353 342 330 325 324 320 315 310 305 299 293 287 285 285 287 283 281 275 261 261 281 276 223 218 207 204 201 204 204 200 203 205 210 215 212 206 201 197 197 197 194 191 189
347 341 335 331 325 321 316 312 306 300 294 289 285 282 283 282 279 271 263 263 259 269 270 219 208 205 207 202 199 200 203 204 208 213 212 208 205 201 198 198 198 194 193
343 340 335 331 327 319 318 314 306 300 297 293 289 284 280 276 272 267 263 264 262 257 258 261 230 201 197 194 173 185 197 202 208 209 210 204 203 201 200 201 197 197 198
336 332 329 325 318 312 313 306 297 295 291 289 287 281 277 271 268 265 263 261 252 250 251 254 257 226 196 185 193 164 191 223 213 205 211 216 200 201 203 201 199 198 198
329 330 325 321 314 310 310 306 301 298 295 292 286 282 275 273 273 269 262 256 250 243 244 244 252 253 196 187 199 186 169 213 140 211 211 214 213 208 205 201 202 204 201
318 313 315 315 310 307 307 303 298 292 290 288 289 286 281 275 272 265 263 258 252 244 239 236 231 239 267 194 200 204 208 178 188 161 214 218 214 221 215 207 201 202 200
311 311 312 313 310 305 304 297 292 288 285 287 286 283 280 275 268 262 260 259 254 244 237 227 219 226 239 257 202 196 199 193 187 143 163 192 218 214 215 217 214 205 207
321 322 317 312 309 309 304 300 293 287 287 286 283 283 282 277 270 261 255 255 255 254 253 248 247 233 233 239 239 206 199 197 195 186 136 175 209 211 210 216 216 209 204